| time (UTC) | temp F | wind direction | speed MPH | gust MPH | rain 1hr in | rain 24hr in | rain mn in | humidity % | barometer mb |
| 20260504034359 | 70 | 278 | 1.0 | 4.0 | 0.00 | 0.00 | 0.00 | 99 | 1022.2 |
| 20260504033856 | 70 | 203 | 0.0 | 2.0 | 0.00 | 0.00 | 0.00 | 99 | 1022.1 |
| 20260504033354 | 70 | 255 | 0.0 | 4.0 | 0.00 | 0.00 | 0.00 | 99 | 1022.2 |
| 20260504032851 | 70 | 151 | 1.0 | 4.0 | 0.00 | 0.00 | 0.00 | 99 | 1022.0 |
| 20260504032348 | 71 | 220 | 0.0 | 4.0 | 0.00 | 0.00 | 0.00 | 99 | 1022.1 |
| 20260504031844 | 71 | 132 | 0.0 | 5.0 | 0.00 | 0.00 | 0.00 | 99 | 1022.2 |
| 20260504031342 | 71 | 180 | 1.0 | 6.0 | 0.00 | 0.00 | 0.00 | 99 | 1022.0 |
| 20260504030838 | 71 | 81 | 0.0 | 5.0 | 0.00 | 0.00 | 0.00 | 99 | 1022.1 |
| 20260504030336 | 71 | 160 | 1.0 | 5.0 | 0.00 | 0.00 | 0.00 | 99 | 1021.8 |
| 20260504025832 | 71 | 217 | 2.0 | 4.0 | 0.00 | 0.00 | 0.00 | 99 | 1021.9 |
| 20260504025329 | 71 | 220 | 2.0 | 2.0 | 0.00 | 0.00 | 0.00 | 99 | 1021.9 |
| 20260504024825 | 72 | 148 | 0.0 | 3.0 | 0.00 | 0.00 | 0.00 | 99 | 1022.0 |
| 20260504024322 | 72 | 239 | 5.0 | 5.0 | 0.00 | 0.00 | 0.00 | 99 | 1022.1 |
| 20260504023819 | 72 | 270 | 0.0 | 7.0 | 0.00 | 0.00 | 0.00 | 99 | 1022.0 |
| 20260504023315 | 72 | 139 | 0.0 | 5.0 | 0.00 | 0.00 | 0.00 | 99 | 1022.1 |
| 20260504022811 | 73 | 176 | 2.0 | 4.0 | 0.00 | 0.00 | 0.00 | 99 | 1022.1 |
| 20260504022308 | 73 | 98 | 2.0 | 9.0 | 0.00 | 0.00 | 0.00 | 99 | 1022.2 |
| 20260504021804 | 73 | 99 | 0.0 | 5.0 | 0.00 | 0.00 | 0.00 | 99 | 1021.9 |
| 20260504021302 | 73 | 221 | 2.0 | 5.0 | 0.00 | 0.00 | 0.00 | 99 | 1022.1 |
| 20260504020759 | 73 | 254 | 1.0 | 3.0 | 0.00 | 0.00 | 0.00 | 99 | 1021.8 |
| 20260504020255 | 73 | 325 | 0.0 | 4.0 | 0.00 | 0.00 | 0.00 | 99 | 1021.7 |
| 20260504015751 | 74 | 117 | 0.0 | 6.0 | 0.00 | 0.00 | 0.00 | 99 | 1021.9 |
| 20260504015248 | 74 | 195 | 0.0 | 4.0 | 0.00 | 0.00 | 0.00 | 99 | 1021.9 |
| 20260504014744 | 74 | 146 | 2.0 | 6.0 | 0.00 | 0.00 | 0.00 | 99 | 1021.9 |
| 20260504014240 | 74 | 188 | 0.0 | 4.0 | 0.00 | 0.00 | 0.00 | 99 | 1021.8 |
| 20260504013738 | 74 | 160 | 0.0 | 6.0 | 0.00 | 0.00 | 0.00 | 99 | 1021.8 |
| 20260504013236 | 75 | 146 | 3.0 | 8.0 | 0.00 | 0.00 | 0.00 | 99 | 1021.8 |
| 20260504012732 | 74 | 98 | 0.0 | 3.0 | 0.00 | 0.00 | 0.00 | 99 | 1021.9 |
| 20260504012230 | 75 | 249 | 3.0 | 6.0 | 0.00 | 0.00 | 0.00 | 99 | 1021.7 |
| 20260504011727 | 75 | 120 | 0.0 | 4.0 | 0.00 | 0.00 | 0.00 | 99 | 1021.5 |
| 20260504011223 | 75 | 270 | 1.0 | 8.0 | 0.00 | 0.00 | 0.00 | 99 | 1021.7 |
| 20260504010719 | 75 | 200 | 6.0 | 6.0 | 0.00 | 0.00 | 0.00 | 99 | 1021.7 |
| 20260504010215 | 75 | 157 | 0.0 | 6.0 | 0.00 | 0.00 | 0.00 | 99 | 1021.4 |
| 20260504005712 | 76 | 203 | 1.0 | 3.0 | 0.00 | 0.00 | 0.00 | 99 | 1021.5 |
| 20260504005209 | 76 | 168 | 0.0 | 4.0 | 0.00 | 0.00 | 0.00 | 99 | 1021.7 |
| 20260504004707 | 76 | 209 | 5.0 | 5.0 | 0.00 | 0.00 | 0.00 | 99 | 1021.4 |
| 20260504004204 | 77 | 124 | 0.0 | 3.0 | 0.00 | 0.00 | 0.00 | 99 | 1021.4 |
| 20260504003700 | 78 | 245 | 2.0 | 9.0 | 0.00 | 0.00 | 0.00 | 99 | 1021.6 |
| 20260504003157 | 79 | 198 | 1.0 | 5.0 | 0.00 | 0.00 | 0.00 | 99 | 1021.5 |
| 20260504002654 | 79 | 117 | 0.0 | 7.0 | 0.00 | 0.00 | 0.00 | 99 | 1021.5 |
| 20260504002151 | 80 | 228 | 0.0 | 8.0 | 0.00 | 0.00 | 0.00 | 99 | 1021.4 |
| 20260504001649 | 80 | 236 | 2.0 | 11.0 | 0.00 | 0.00 | 0.00 | 99 | 1021.5 |
| 20260504001145 | 80 | 206 | 0.0 | 11.0 | 0.00 | 0.00 | 0.00 | 99 | 1021.6 |
| 20260504000642 | 81 | 250 | 0.0 | 9.0 | 0.00 | 0.00 | 0.00 | 99 | 1021.5 |
| 20260504000139 | 80 | 139 | 2.0 | 7.0 | 0.00 | 0.00 | 0.00 | 99 | 1021.6 |
| 20260503235637 | 81 | 139 | 2.0 | 10.0 | 0.00 | 0.00 | 0.00 | 99 | 1021.6 |
| 20260503235134 | 82 | 120 | 1.0 | 6.0 | 0.00 | 0.00 | 0.00 | 99 | 1021.7 |
| 20260503234632 | 82 | 206 | 0.0 | 6.0 | 0.00 | 0.00 | 0.00 | 99 | 1021.8 |
| 20260503234130 | 82 | 227 | 3.0 | 6.0 | 0.00 | 0.00 | 0.00 | 99 | 1021.6 |
| 20260503233627 | 82 | 194 | 0.0 | 9.0 | 0.00 | 0.00 | 0.00 | 99 | 1021.6 |
| 20260503233122 | 81 | 220 | 3.0 | 10.0 | 0.00 | 0.00 | 0.00 | 99 | 1022.0 |
| 20260503232619 | 81 | 217 | 4.0 | 8.0 | 0.00 | 0.00 | 0.00 | 99 | 1021.7 |
| 20260503232116 | 82 | 225 | 3.0 | 11.0 | 0.00 | 0.00 | 0.00 | 99 | 1021.9 |
| 20260503231615 | 83 | 110 | 0.0 | 15.0 | 0.00 | 0.00 | 0.00 | 99 | 1021.9 |
| 20260503231111 | 82 | 240 | 3.0 | 8.0 | 0.00 | 0.00 | 0.00 | 99 | 1021.7 |
| 20260503230609 | 83 | 270 | 0.0 | 10.0 | 0.00 | 0.00 | 0.00 | 99 | 1022.2 |
| 20260503230105 | 83 | 171 | 2.0 | 9.0 | 0.00 | 0.00 | 0.00 | 99 | 1022.0 |
| 20260503225602 | 82 | 148 | 3.0 | 6.0 | 0.00 | 0.00 | 0.00 | 99 | 1022.0 |
| 20260503225057 | 83 | 126 | 0.0 | 5.0 | 0.00 | 0.00 | 0.00 | 99 | 1021.9 |
| 20260503224555 | 83 | 225 | 0.0 | 9.0 | 0.00 | 0.00 | 0.00 | 99 | 1022.0 |
| 20260503224053 | 84 | 195 | 3.0 | 6.0 | 0.00 | 0.00 | 0.00 | 99 | 1022.0 |
| 20260503223550 | 82 | 218 | 2.0 | 10.0 | 0.00 | 0.00 | 0.00 | 99 | 1022.0 |
| 20260503223045 | 82 | 203 | 5.0 | 13.0 | 0.00 | 0.00 | 0.00 | 99 | 1022.0 |
| 20260503222544 | 82 | 117 | 2.0 | 13.0 | 0.00 | 0.00 | 0.00 | 99 | 1022.3 |
| 20260503222041 | 82 | 257 | 2.0 | 14.0 | 0.00 | 0.00 | 0.00 | 99 | 1022.3 |
| 20260503221539 | 83 | 240 | 3.0 | 8.0 | 0.00 | 0.00 | 0.00 | 99 | 1022.2 |
| 20260503221037 | 83 | 132 | 0.0 | 7.0 | 0.00 | 0.00 | 0.00 | 99 | 1022.4 |
| 20260503220533 | 83 | 239 | 0.0 | 13.0 | 0.00 | 0.00 | 0.00 | 99 | 1022.6 |
| 20260503220029 | 84 | 107 | 2.0 | 7.0 | 0.00 | 0.00 | 0.00 | 99 | 1022.5 |
| 20260503215527 | 82 | 239 | 3.0 | 7.0 | 0.00 | 0.00 | 0.00 | 99 | 1022.3 |
| 20260503215024 | 82 | 251 | 9.0 | 12.0 | 0.00 | 0.00 | 0.00 | 99 | 1022.5 |
| 20260503214522 | 82 | 205 | 4.0 | 14.0 | 0.00 | 0.00 | 0.00 | 99 | 1022.6 |
| 20260503214018 | 84 | 251 | 5.0 | 9.0 | 0.00 | 0.00 | 0.00 | 99 | 1022.6 |
| 20260503213517 | 84 | 129 | 2.0 | 8.0 | 0.00 | 0.00 | 0.00 | 99 | 1022.7 |
| 20260503213013 | 83 | 162 | 0.0 | 11.0 | 0.00 | 0.00 | 0.00 | 99 | 1022.4 |
| 20260503212510 | 85 | 187 | 2.0 | 6.0 | 0.00 | 0.00 | 0.00 | 99 | 1023.1 |
| 20260503212008 | 84 | 75 | 3.0 | 8.0 | 0.00 | 0.00 | 0.00 | 99 | 1022.8 |
| 20260503211505 | 83 | 109 | 2.0 | 7.0 | 0.00 | 0.00 | 0.00 | 99 | 1022.9 |
| 20260503211000 | 84 | 120 | 2.0 | 11.0 | 0.00 | 0.00 | 0.00 | 99 | 1023.2 |
| 20260503210458 | 83 | 234 | 4.0 | 9.0 | 0.00 | 0.00 | 0.00 | 99 | 1023.1 |
| 20260503205957 | 82 | 102 | 0.0 | 11.0 | 0.00 | 0.00 | 0.00 | 99 | 1023.2 |
| 20260503205455 | 83 | 188 | 2.0 | 10.0 | 0.00 | 0.00 | 0.00 | 99 | 1023.3 |
| 20260503204951 | 83 | 135 | 2.0 | 5.0 | 0.00 | 0.00 | 0.00 | 99 | 1023.5 |
| 20260503204448 | 83 | 218 | 9.0 | 11.0 | 0.00 | 0.00 | 0.00 | 99 | 1023.5 |
| 20260503203945 | 83 | 166 | 3.0 | 4.0 | 0.00 | 0.00 | 0.00 | 99 | 1023.4 |
| 20260503203443 | 83 | 270 | 3.0 | 4.0 | 0.00 | 0.00 | 0.00 | 99 | 1023.8 |
| 20260503202939 | 83 | 139 | 0.0 | 5.0 | 0.00 | 0.00 | 0.00 | 99 | 1023.7 |
| 20260503202438 | 81 | 243 | 1.0 | 2.0 | 0.00 | 0.00 | 0.00 | 99 | 1024.1 |
| 20260503201936 | 82 | 203 | 2.0 | 8.0 | 0.00 | 0.00 | 0.00 | 99 | 1024.2 |
| 20260503201433 | 82 | 180 | 0.0 | 8.0 | 0.00 | 0.00 | 0.00 | 99 | 1023.9 |
| 20260503200930 | 82 | 111 | 1.0 | 6.0 | 0.00 | 0.00 | 0.00 | 99 | 1024.2 |
| 20260503200426 | 82 | 263 | 7.0 | 9.0 | 0.00 | 0.00 | 0.00 | 99 | 1024.2 |
| 20260503195923 | 82 | 127 | 0.0 | 3.0 | 0.00 | 0.00 | 0.00 | 99 | 1024.3 |
| 20260503195421 | 81 | 303 | 5.0 | 9.0 | 0.00 | 0.00 | 0.00 | 99 | 1024.7 |
| 20260503194917 | 81 | 188 | 3.0 | 14.0 | 0.00 | 0.00 | 0.00 | 99 | 1024.4 |
| 20260503194413 | 81 | 258 | 5.0 | 8.0 | 0.00 | 0.00 | 0.00 | 99 | 1024.7 |
| 20260503193909 | 81 | 228 | 2.0 | 11.0 | 0.00 | 0.00 | 0.00 | 99 | 1024.6 |
| 20260503193405 | 82 | 245 | 7.0 | 14.0 | 0.00 | 0.00 | 0.00 | 99 | 1024.8 |
| 20260503192900 | 82 | 228 | 4.0 | 10.0 | 0.00 | 0.00 | 0.00 | 99 | 1024.9 |
| 20260503192356 | 82 | 140 | 0.0 | 9.0 | 0.00 | 0.00 | 0.00 | 99 | 1024.9 |
| 20260503191853 | 82 | 210 | 2.0 | 8.0 | 0.00 | 0.00 | 0.00 | 99 | 1025.2 |
| 20260503191350 | 80 | 219 | 3.0 | 12.0 | 0.00 | 0.00 | 0.00 | 99 | 1025.2 |
| 20260503190847 | 81 | 234 | 8.0 | 9.0 | 0.00 | 0.00 | 0.00 | 99 | 1025.1 |
| 20260503190344 | 81 | 135 | 2.0 | 8.0 | 0.00 | 0.00 | 0.00 | 99 | 1025.1 |
| 20260503185841 | 81 | 246 | 3.0 | 5.0 | 0.00 | 0.00 | 0.00 | 99 | 1025.1 |
| 20260503185337 | 80 | 258 | 4.0 | 13.0 | 0.00 | 0.00 | 0.00 | 99 | 1025.2 |
| 20260503184837 | 80 | 257 | 4.0 | 10.0 | 0.00 | 0.00 | 0.00 | 99 | 1025.5 |
| 20260503184333 | 79 | 249 | 5.0 | 10.0 | 0.00 | 0.00 | 0.00 | 99 | 1025.6 |
| 20260503183829 | 81 | 248 | 3.0 | 4.0 | 0.00 | 0.00 | 0.00 | 99 | 1025.7 |
| 20260503183326 | 80 | 217 | 2.0 | 17.0 | 0.00 | 0.00 | 0.00 | 99 | 1025.9 |
| 20260503182824 | 80 | 258 | 3.0 | 10.0 | 0.00 | 0.00 | 0.00 | 99 | 1026.1 |
| 20260503182323 | 80 | 196 | 0.0 | 5.0 | 0.00 | 0.00 | 0.00 | 99 | 1025.9 |
| 20260503181820 | 79 | 216 | 10.0 | 13.0 | 0.00 | 0.00 | 0.00 | 99 | 1026.1 |
| 20260503181317 | 79 | 202 | 2.0 | 10.0 | 0.00 | 0.00 | 0.00 | 99 | 1026.0 |
| 20260503180813 | 80 | 199 | 3.0 | 11.0 | 0.00 | 0.00 | 0.00 | 99 | 1026.0 |
| 20260503180311 | 81 | 152 | 0.0 | 4.0 | 0.00 | 0.00 | 0.00 | 99 | 1026.5 |
| 20260503175807 | 79 | 242 | 4.0 | 10.0 | 0.00 | 0.00 | 0.00 | 99 | 1026.5 |
| 20260503175306 | 80 | 216 | 0.0 | 13.0 | 0.00 | 0.00 | 0.00 | 99 | 1026.5 |
| 20260503174800 | 78 | 314 | 4.0 | 13.0 | 0.00 | 0.00 | 0.00 | 99 | 1026.7 |
| 20260503174259 | 79 | 227 | 3.0 | 14.0 | 0.00 | 0.00 | 0.00 | 99 | 1026.7 |
| 20260503173754 | 80 | 135 | 3.0 | 8.0 | 0.00 | 0.00 | 0.00 | 99 | 1026.8 |
| 20260503173250 | 79 | 246 | 4.0 | 9.0 | 0.00 | 0.00 | 0.00 | 99 | 1027.2 |
| 20260503172747 | 78 | 220 | 3.0 | 7.0 | 0.00 | 0.00 | 0.00 | 99 | 1027.2 |
| 20260503172244 | 78 | 232 | 4.0 | 15.0 | 0.00 | 0.00 | 0.00 | 99 | 1027.2 |
| 20260503171741 | 78 | 241 | 9.0 | 12.0 | 0.00 | 0.00 | 0.00 | 99 | 1026.9 |
| 20260503171238 | 77 | 236 | 4.0 | 11.0 | 0.00 | 0.00 | 0.00 | 99 | 1026.9 |
| 20260503170735 | 77 | 195 | 0.0 | 13.0 | 0.00 | 0.00 | 0.00 | 99 | 1027.2 |
| 20260503170232 | 77 | 242 | 6.0 | 11.0 | 0.00 | 0.00 | 0.00 | 99 | 1027.3 |
| 20260503160154 | 75 | 261 | 8.0 | 9.0 | 0.00 | 0.00 | 0.00 | 99 | 1027.7 |
| 20260503150624 | 73 | 243 | 2.0 | 11.0 | 0.00 | 0.00 | 0.00 | 99 | 1027.6 |
| 20260503150120 | 72 | 297 | 3.0 | 11.0 | 0.00 | 0.00 | 0.00 | 99 | 1027.6 |
| 20260503131014 | 60 | 4 | 0.0 | 0.0 | 0.00 | 0.00 | 0.00 | 99 | 1027.4 |
| 20260503130511 | 59 | 4 | 0.0 | 0.0 | 0.00 | 0.00 | 0.00 | 99 | 1027.5 |
| 20260503110401 | 52 | 0 | 0.0 | 0.0 | 0.00 | 0.00 | 0.00 | 99 | 1026.6 |
| 20260503090252 | 55 | 23 | 0.0 | 0.0 | 0.00 | 0.00 | 0.00 | 99 | 1026.4 |
| 20260503081220 | 55 | 90 | 0.0 | 0.0 | 0.00 | 0.00 | 0.00 | 99 | 1026.3 |
| 20260503080715 | 56 | 90 | 0.0 | 0.0 | 0.00 | 0.00 | 0.00 | 99 | 1026.6 |
| 20260503080213 | 56 | 270 | 0.0 | 0.0 | 0.00 | 0.00 | 0.00 | 99 | 1026.1 |
| 20260503072649 | 58 | 270 | 0.0 | 0.0 | 0.00 | 0.00 | 0.00 | 99 | 1026.4 |
| 20260503072146 | 58 | 270 | 0.0 | 0.0 | 0.00 | 0.00 | 0.00 | 99 | 1026.4 |
| 20260503071643 | 59 | 270 | 0.0 | 1.0 | 0.00 | 0.00 | 0.00 | 99 | 1026.6 |
| 20260503071139 | 59 | 279 | 0.0 | 0.0 | 0.00 | 0.00 | 0.00 | 99 | 1026.5 |
| 20260503070637 | 58 | 0 | 0.0 | 0.0 | 0.00 | 0.00 | 0.00 | 99 | 1026.7 |
| 20260503070135 | 59 | 255 | 0.0 | 0.0 | 0.00 | 0.00 | 0.00 | 99 | 1026.6 |
| 20260503055050 | 59 | 229 | 0.0 | 2.0 | 0.00 | 0.00 | 0.00 | 99 | 1026.6 |
| 20260503054546 | 59 | 66 | 0.0 | 0.0 | 0.00 | 0.00 | 0.00 | 99 | 1026.3 |
| 20260503054043 | 59 | 66 | 0.0 | 1.0 | 0.00 | 0.00 | 0.00 | 99 | 1026.5 |
| 20260503053541 | 58 | 105 | 0.0 | 1.0 | 0.00 | 0.00 | 0.00 | 99 | 1026.7 |
| 20260503053039 | 58 | 90 | 0.0 | 0.0 | 0.00 | 0.00 | 0.00 | 99 | 1026.6 |
| 20260503052535 | 58 | 90 | 0.0 | 0.0 | 0.00 | 0.00 | 0.00 | 99 | 1026.5 |
| 20260503052031 | 58 | 90 | 0.0 | 0.0 | 0.00 | 0.00 | 0.00 | 99 | 1026.5 |
| 20260503051527 | 59 | 90 | 0.0 | 0.0 | 0.00 | 0.00 | 0.00 | 99 | 1026.4 |
| 20260503051025 | 59 | 90 | 0.0 | 0.0 | 0.00 | 0.00 | 0.00 | 99 | 1026.5 |
| 20260503050520 | 59 | 90 | 0.0 | 0.0 | 0.00 | 0.00 | 0.00 | 99 | 1026.4 |
| 20260503050018 | 59 | 90 | 0.0 | 0.0 | 0.00 | 0.00 | 0.00 | 99 | 1026.3 |
| 20260503045515 | 59 | 90 | 0.0 | 0.0 | 0.00 | 0.00 | 0.00 | 99 | 1026.1 |
| 20260503045012 | 59 | 90 | 0.0 | 0.0 | 0.00 | 0.00 | 0.00 | 99 | 1026.3 |
| 20260503044509 | 59 | 90 | 0.0 | 0.0 | 0.00 | 0.00 | 0.00 | 99 | 1026.3 |
| 20260503044007 | 59 | 90 | 0.0 | 0.0 | 0.00 | 0.00 | 0.00 | 99 | 1026.3 |
| 20260503043503 | 59 | 90 | 0.0 | 0.0 | 0.00 | 0.00 | 0.00 | 99 | 1026.1 |
| 20260503042959 | 59 | 90 | 0.0 | 0.0 | 0.00 | 0.00 | 0.00 | 99 | 1026.1 |
| 20260503042456 | 59 | 90 | 0.0 | 0.0 | 0.00 | 0.00 | 0.00 | 99 | 1026.3 |
| 20260503041952 | 59 | 90 | 0.0 | 0.0 | 0.00 | 0.00 | 0.00 | 99 | 1026.2 |
| 20260503041449 | 60 | 90 | 0.0 | 0.0 | 0.00 | 0.00 | 0.00 | 99 | 1026.2 |
| 20260503040947 | 60 | 90 | 0.0 | 0.0 | 0.00 | 0.00 | 0.00 | 99 | 1026.4 |
| 20260503040444 | 60 | 90 | 0.0 | 0.0 | 0.00 | 0.00 | 0.00 | 99 | 1026.4 |
| 20260503035941 | 60 | 90 | 0.0 | 0.0 | 0.00 | 0.00 | 0.00 | 99 | 1026.4 |
| 20260503035438 | 61 | 90 | 0.0 | 0.0 | 0.00 | 0.00 | 0.00 | 99 | 1026.4 |
| 20260503034936 | 61 | 90 | 0.0 | 0.0 | 0.00 | 0.00 | 0.00 | 99 | 1026.3 |